Location: Dehesa de la Cepeda
(40.6574°N, 4.3013°W)
Time: 09:21:11
(UTC+00:00)

Meteor 2-12 Rocket - Pass Details

Date: 05 July 2020
Orbit: 936 x 957 km, 82.5° (Epoch: 07 August)

Event Time Altitude Azimuth Distance (km) Brightness Sun altitude
Exits shadow 23:37:28 56° 124° (SE) 1,116 4.5 -25.8°
Maximum altitude 23:38:12 60° 93° (E) 1,076 4.6 -25.9°
Drops below altitude 10° 23:44:13 10° 15° (NNE) 2,687 7.6 -26.1°
Sets 23:46:46 0° 12° (NNE) 3,639 8.6 -26.2°
